Tracking 20942 objects as of 10-Jul-2020
HD Live streaming from Space Station
objects crossing your sky now

FLOCK 2K 02

Track FLOCK 2K 02 now!
10-day predictions
FLOCK 2K 02 is classified as:


NORAD ID: 42853
Int'l Code: 2017-042AE
Perigee: 447.3 km
Apogee: 457.5 km
Inclination: 96.9 °
Period: 93.5 minutes
Semi major axis: 6823 km
RCS: Unknown
Launch date: July 14, 2017
Source: United States (US)
Launch site: TYURATAM MISSILE AND SPACE COMPLEX (TTMTR)
aabbcc
Your satellite tracking list
Your tracking list is empty




NASA's NSSDC Master Catalog

Two Line Element Set (TLE):
1 42853U 17042AE  20192.38233963 +.00002562 +00000-0 +65445-4 0  9990
2 42853 096.8896 056.1817 0007504 257.7527 102.2881 15.40295745167445
Source of the keplerian elements: AFSPC